Regional Weather Roundup
Issued by NWS State College, PA

Home | Current Version | Previous Version | Text Only | Print | Product List | Glossary On
Versions: 1 2 3 4 5 6 7 8 9 10 11 12 13 14 15 16 17 18 19 20 21 22 23 24 25 26 27 28 29 30 31 32 33 34 35 36 37 38 39 40 41 42 43 44 45 46 47 48 49 50
000
ASUS41 KCTP 020710
RWRCTP

REGIONAL WEATHER ROUNDUP
NATIONAL WEATHER SERVICE STATE COLLEGE PA
300 AM EDT THU APR 02 2015

Note: "fair" indicates few or no clouds below 12,000 feet with no
significant weather and/or obstructions to visibility.

* = STATION THAT DOES NOT REPORT PRECIPITATION /E.G. RAIN...SNOW...ETC/
    THUNDER OR FOG.

PAZ002>004-007>009-013>016-020>023-029>032-020800-
WESTERN PENNSYLVANIA

CITY           SKY/WX    TMP DP  RH WIND       PRES   REMARKS
ERIE           PTCLDY    47  29  49 S12       30.03F
MEADVILLE      CLEAR     44  27  51 S5        30.05F
FRANKLIN*      CLEAR     37  25  60 CALM      30.09S
NEW CASTLE     FAIR      42  28  58 CALM      30.08F
BEAVER COUNTY  NOT AVBL
BUTLER*        CLEAR     43  25  49 S6        30.10F
PITTSBURGH INT PTCLDY    42  25  50 CALM      30.08F
PITTSBURGH     CLEAR     45  20  36 S7        30.08F
INDIANA*       CLEAR     37  27  65 CALM      30.13F
LATROBE        CLEAR     32  27  80 CALM      30.12F
WASHINGTON CO* CLEAR     32  25  74 CALM      30.10S
$$

PAZ004>006-010>012-017>019-024>028-033>037-041-042-045-046-049>053-020800-
CENTRAL PENNSYLVANIA

CITY           SKY/WX    TMP DP  RH WIND       PRES   REMARKS
BRADFORD       CLEAR      1  32 100 SE3       30.09S
DUBOIS         CLEAR     37  26  64 VRB3      30.09F
CLEARFIELD     CLEAR     28  26  92 NE5       30.13S
JOHNSTOWN      CLEAR     42  22  44 S6        30.10F
ALTOONA        CLEAR     41  24  51 CALM      30.14F
STATE COLLEGE  CLEAR     33  28  80 CALM      30.15F
WILLIAMSPORT   CLEAR     29  25  85 CALM      30.20R
SELINSGROVE    CLEAR     27  25  92 CALM      30.21S
FT INDIANTOWN  CLEAR     27  25  91 NE3       30.22S
CAPITAL CITY   CLEAR     33  27  78 CALM      30.21F
HARRISBURG     PTCLDY    33  28  81 E6        30.21F
YORK           CLEAR     28  23  81 CALM      30.21F
$$

PAZ038>040-043-044-047-048-054-055-060>062-067>071-020800-
EASTERN PENNSYLVANIA

CITY           SKY/WX    TMP DP  RH WIND       PRES   REMARKS
SCRANTON       CLEAR     31  22  69 E3        30.18F
MOUNT POCONO   CLEAR     25  21  85 CALM      30.15S
ALLENTOWN      CLEAR     29  24  82 CALM      30.22R
QUAKERTOWN*    SUNNY     27  25  93 CALM      30.22S
READING        CLEAR     32  25  75 CALM      30.22R
LANCASTER      CLEAR     33  28  81 E3        30.22S
COATESVILLE    SUNNY     39  27  60 SW3       30.23S
POTTSTOWN      CLEAR     30  24  78 CALM      30.25R
BLUE BELL      CLEAR     32  28  86 CALM      30.23R
DOYLESTOWN     CLEAR     30  24  78 CALM      30.22R
WILLOW GROVE   NOT AVBL
NORTH PHILA    CLEAR     33  23  66 CALM      30.26R
PHILADELPHIA   CLEAR     38  30  73 SW7       30.26R
$$



USA.gov is the U.S. government's official web portal to all federal, state and local government web resources and services.